Flag for Canada Weather past 2 weeks in Vancouver, British Columbia, Canada

Now
50 °F

Light rain. Mostly cloudy.


Feels Like: 46 °F
Forecast: 48 / 53 °F
Wind: 10 mph from Southeast

Location: Vancouver International Air-Port


UV Index: 0 (Low)

Visibility: 10 mi


Pressure: 29.93 "Hg

Humidity: 94%

Dew point: 48 °F

Location of VancouverLocation

Historic Weather in Vancouver

°F

Vancouver temperature yesterday

Maximum temperature yesterday: 55 °F (at 12:00 PM)
Minimum temperature yesterday: 48 °F (at 5:00 AM)
Average temperature yesterday: 52 °F

Past Weeks' High & Low Weather Summary

 TemperatureHumidityPressure
High61 °F (Apr 14, 3:00 PM)100% (Apr 5, 11:00 PM)30.35 "Hg (Apr 5, 11:00 PM)
Low37 °F (Apr 2, 7:00 AM)41% (Apr 13, 10:00 PM)29.83 "Hg (Apr 1, 8:00 PM)
Average50 °F77%30.09 "Hg
* Reported Apr 1 8:00 PM — Apr 16 8:54 PM, Vancouver, Weather by CustomWeather, © 2014

Note: Actual official high and low records may vary slightly from our data, if they occured in-between our weather recording intervals... More about our weather records

Advertising

Historic Weather Conditions — Data for Previous 24 hours

 ConditionsComfort  
Time TempWeatherWind HumidityBarometerVisibility
8:54 PM
Apr 16
50 °FLight rain. Mostly cloudy.12 mph94%29.93 "Hg8 mi
8:00 PM50 °FSprinkles. More clouds than sun.10 mph94%29.94 "Hg10 mi
7:00 PM52 °FCloudy.7 mph88%29.95 "Hg10 mi
6:00 PM52 °FCloudy.9 mph88%29.97 "Hg12 mi
5:00 PM52 °FSprinkles. Low clouds.13 mph88%29.98 "Hg10 mi
4:00 PM52 °FLow clouds.12 mph88%29.99 "Hg10 mi
3:00 PM52 °FMore clouds than sun.13 mph88%30.00 "Hg10 mi
2:00 PM50 °FCloudy.14 mph94%30.01 "Hg8 mi
1:51 PM52 °FCloudy.13 mph88%30.01 "Hg8 mi
1:00 PM50 °FLight rain. Cloudy.12 mph94%30.01 "Hg4 mi
12:00 PM50 °FLight rain. Mostly cloudy.13 mph94%30.02 "Hg6 mi
11:00 AM50 °FLight rain. Mostly cloudy.14 mph94%30.02 "Hg6 mi
10:00 AM48 °FLight rain. Mostly cloudy.9 mph94%30.02 "Hg6 mi
9:00 AM48 °FLight rain. Mostly cloudy.8 mph94%30.01 "Hg8 mi
8:00 AM46 °FLight rain. Mostly cloudy.9 mph93%30.01 "Hg8 mi
7:00 AM46 °FLight rain. Low clouds.8 mph87%30.02 "Hg10 mi
6:50 AM46 °FLight rain. Low clouds.9 mph87%30.01 "Hg10 mi
6:00 AM46 °FLight rain. Mostly cloudy.10 mph87%30.02 "Hg8 mi
5:00 AM46 °FLight rain. Mostly cloudy.9 mph93%30.02 "Hg8 mi
4:00 AM46 °FLight rain. Mostly cloudy.9 mph87%30.02 "Hg15 mi
3:00 AM46 °FLight rain. Mostly cloudy.8 mph87%30.03 "Hg15 mi
2:00 AM46 °FLight rain. Overcast.13 mph87%30.03 "Hg15 mi
1:00 AM48 °FLight rain. Mostly cloudy.8 mph87%30.05 "Hg12 mi
12:00 AM48 °FLight rain. Mostly cloudy.7 mph87%30.06 "Hg12 mi
11:00 PM
Apr 15
48 °FSprinkles. Overcast.8 mph87%30.06 "Hg15 mi
10:00 PM50 °FSprinkles. Mostly cloudy.7 mph71%30.07 "Hg15 mi
9:00 PM52 °FScattered showers. Mostly cloudy.No wind72%30.07 "Hg20 mi
Weather by CustomWeather, © 2014

See weather overview